GW2255 Weather Reports


time (UTC)temp
C
wind
direction
speed
KPH
gust
KPH
rain 1hr
cm
rain 24hr
cm
rain mn
cm
humidity
%
barometer
mb
20260510141555 12 19 11.3 27.4 0.00 0.00 0.00 58 1016.2
20260510140053 13 49 11.3 24.1 0.00 0.00 0.00 56 1016.3
20260510134557 13 102 9.7 27.4 0.00 0.00 0.00 57 1016.4
20260510133058 12 37 12.9 29.0 0.00 0.00 0.00 59 1016.6
20260510131554 12 30 9.7 25.7 0.00 0.00 0.00 61 1016.6
20260510130056 12 113 9.7 22.5 0.00 0.00 0.00 64 1016.7
20260510124602 12 35 9.7 25.7 0.00 0.00 0.00 64 1016.8
20260510123057 12 34 9.7 25.7 0.00 0.00 0.00 63 1017.0
20260510121552 11 24 9.7 27.4 0.00 0.00 0.00 67 1017.2
20260510120054 11 342 11.3 27.4 0.00 0.00 0.00 66 1017.3
20260510114555 12 51 6.4 22.5 0.00 0.00 0.00 66 1017.4
20260510113054 11 30 6.4 19.3 0.00 0.00 0.00 69 1017.5
20260510111603 12 24 8.0 29.0 0.00 0.00 0.00 68 1017.6
20260510110057 11 327 4.8 24.1 0.00 0.00 0.00 69 1017.6
20260510104553 12 31 11.3 27.4 0.00 0.00 0.00 68 1017.6
20260510103103 11 28 8.0 25.7 0.00 0.00 0.00 69 1017.6
20260510101559 11 348 12.9 32.2 0.00 0.00 0.00 69 1017.7
20260510100054 12 313 12.9 29.0 0.00 0.00 0.00 69 1017.8
20260510094610 11 44 11.3 27.4 0.00 0.00 0.00 69 1017.7
20260510093111 12 58 8.0 24.1 0.00 0.00 0.00 69 1017.8
20260510091557 11 24 9.7 22.5 0.00 0.00 0.00 71 1018.0
20260510090055 12 94 9.7 22.5 0.00 0.00 0.00 70 1018.2
20260510084552 11 33 9.7 20.9 0.00 0.00 0.00 72 1018.2
20260510083105 11 55 9.7 22.5 0.00 0.00 0.00 73 1018.1
20260510081555 11 36 6.4 22.5 0.00 0.00 0.00 74 1018.2
20260510080057 11 329 8.0 22.5 0.00 0.00 0.00 75 1018.1
20260510074602 11 5 8.0 27.4 0.00 0.00 0.00 75 1018.0
20260510073057 11 318 9.7 27.4 0.00 0.00 0.00 76 1018.1
20260510071600 11 5 9.7 24.1 0.00 0.00 0.00 77 1018.2
20260510070053 10 35 11.3 25.7 0.00 0.00 0.00 80 1018.0
20260510064600 10 268 8.0 24.1 0.00 0.00 0.00 82 1018.1
20260510063057 10 352 6.4 19.3 0.00 0.00 0.00 83 1017.8
20260510061603 9 11 9.7 20.9 0.00 0.00 0.00 84 1017.8
20260510060056 9 11 8.0 20.9 0.00 0.00 0.00 85 1017.8
20260510054554 8 360 6.4 22.5 0.00 0.00 0.00 86 1017.7
20260510053059 8 34 6.4 17.7 0.00 0.00 0.00 86 1017.7
20260510051605 8 9 6.4 19.3 0.00 0.00 0.00 85 1017.7
20260510050057 8 21 4.8 14.5 0.00 0.00 0.00 85 1017.9
20260510044609 8 14 4.8 16.1 0.00 0.00 0.00 85 1017.8
20260510043051 8 59 4.8 16.1 0.00 0.00 0.00 84 1017.8
20260510041554 8 27 4.8 16.1 0.00 0.00 0.00 84 1017.8
20260510040058 8 44 6.4 19.3 0.00 0.00 0.00 84 1017.9
20260510034553 9 24 6.4 16.1 0.00 0.00 0.00 84 1017.8
20260510033059 9 15 6.4 19.3 0.00 0.00 0.00 85 1018.1
20260510031554 9 5 8.0 17.7 0.00 0.00 0.00 85 1018.2
20260510024556 9 19 4.8 14.5 0.00 0.00 0.00 85 1018.1
20260510023053 9 360 4.8 16.1 0.00 0.00 0.00 85 1018.1
20260510021600 9 43 4.8 17.7 0.00 0.00 0.00 85 1018.4
20260510020056 9 28 6.4 17.7 0.00 0.00 0.00 85 1018.5
20260510014553 9 55 9.7 19.3 0.00 0.00 0.00 84 1018.3
20260510013054 9 9 4.8 12.9 0.00 0.00 0.00 84 1018.2
20260510011552 9 351 4.8 17.7 0.00 0.00 0.00 83 1018.1
20260510010055 9 42 3.2 19.3 0.00 0.00 0.00 82 1018.4
20260510004553 10 9 1.6 12.9 0.00 0.00 0.00 81 1018.5
20260510003101 10 0 4.8 16.1 0.00 0.00 0.00 80 1018.5
20260510001556 10 43 4.8 12.9 0.00 0.00 0.00 80 1018.7
20260510000058 10 47 6.4 20.9 0.00 0.00 0.00 79 1018.5
20260509234557 10 350 4.8 14.5 0.00 0.00 0.00 77 1018.5
20260509233057 11 13 3.2 11.3 0.00 0.00 0.00 75 1018.5
20260509231604 11 26 3.2 9.7 0.00 0.00 0.00 74 1018.5
20260509230100 11 32 3.2 11.3 0.00 0.00 0.00 71 1018.5
20260509224601 11 352 3.2 16.1 0.00 0.00 0.00 70 1018.7
20260509223058 11 344 4.8 11.3 0.00 0.00 0.00 69 1018.7
20260509221603 11 30 3.2 14.5 0.00 0.00 0.00 67 1018.4
20260509220110 12 17 1.6 9.7 0.00 0.00 0.00 66 1018.4
20260509214600 12 15 3.2 11.3 0.00 0.00 0.00 64 1018.2
20260509213133 12 0 3.2 12.9 0.00 0.00 0.00 61 1018.3
20260509211554 12 49 3.2 9.7 0.00 0.00 0.00 60 1018.4
20260509210106 12 46 1.6 12.9 0.00 0.00 0.00 57 1018.2
20260509204552 13 0 1.6 12.9 0.00 0.00 0.00 54 1018.3
20260509203059 13 35 3.2 12.9 0.00 0.00 0.00 51 1018.0
20260509201559 13 30 4.8 12.9 0.00 0.00 0.00 50 1017.9
20260509200105 14 11 3.2 12.9 0.00 0.00 0.00 49 1017.8
20260509194604 15 53 3.2 12.9 0.00 0.00 0.00 48 1017.7
20260509193102 15 22 3.2 12.9 0.00 0.00 0.00 47 1017.7
20260509191555 15 29 1.6 16.1 0.00 0.00 0.00 48 1017.4
20260509190101 15 0 3.2 11.3 0.00 0.00 0.00 49 1017.2
20260509184555 16 67 6.4 16.1 0.00 0.00 0.00 47 1017.3
20260509183053 16 78 6.4 12.9 0.00 0.00 0.00 46 1017.3
20260509181559 16 57 8.0 16.1 0.00 0.00 0.00 45 1017.1
20260509180054 16 70 4.8 19.3 0.00 0.00 0.00 46 1017.0
20260509174556 17 49 6.4 16.1 0.00 0.00 0.00 43 1017.2
20260509173056 17 83 8.0 17.7 0.00 0.00 0.00 41 1017.1
20260509171553 17 103 9.7 17.7 0.00 0.00 0.00 39 1017.2
20260509170055 18 111 8.0 20.9 0.00 0.00 0.00 37 1017.2
20260509164553 18 126 9.7 19.3 0.00 0.00 0.00 36 1017.2
20260509163054 18 63 8.0 19.3 0.00 0.00 0.00 36 1017.3
20260509161554 18 85 8.0 19.3 0.00 0.00 0.00 36 1017.4
20260509160052 19 69 9.7 20.9 0.00 0.00 0.00 35 1017.5
20260509154556 19 109 12.9 19.3 0.00 0.00 0.00 35 1017.4
20260509153103 20 85 6.4 24.1 0.00 0.00 0.00 35 1017.3
20260509151555 20 96 9.7 24.1 0.00 0.00 0.00 36 1017.2
20260509150055 20 48 11.3 25.7 0.00 0.00 0.00 34 1017.0
20260509144559 20 22 14.5 25.7 0.00 0.00 0.00 35 1016.8
20260509143056 20 59 11.3 20.9 0.00 0.00 0.00 36 1016.7